GW4807 Weather Reports


Display with metric or nautical units.
time (UTC)temp
F
wind
direction
speed
MPH
gust
MPH
rain 1hr
in
rain 24hr
in
rain mn
in
humidity
%
barometer
mb
20260905062720 72 124 0.0 0.0 0.00 0.00 0.00 91 1009.4
20260905062219 72 124 0.0 0.0 0.00 0.00 0.00 91 1009.2
20260905061713 72 125 0.0 0.0 0.00 0.00 0.00 91 1009.4
20260905061208 72 125 0.0 0.0 0.00 0.00 0.00 90 1009.3
20260905060703 72 125 0.0 0.0 0.00 0.00 0.00 90 1009.3
20260905060200 72 123 0.0 0.0 0.00 0.00 0.00 90 1009.6
20260905055658 72 125 0.0 0.0 0.00 0.00 0.00 89 1009.3
20260905055153 73 125 0.0 0.0 0.00 0.00 0.00 89 1009.3
20260905054649 73 125 0.0 0.0 0.00 0.00 0.00 89 1009.4
20260905054144 73 125 0.0 0.0 0.00 0.00 0.00 89 1009.3
20260905053644 73 125 0.0 0.0 0.00 0.00 0.00 88 1009.5
20260905053139 73 125 0.0 0.0 0.00 0.00 0.00 88 1009.3
20260905052639 73 125 0.0 0.0 0.00 0.00 0.00 87 1009.2
20260905052133 74 125 0.0 0.0 0.00 0.00 0.00 86 1009.3
20260905051629 74 123 0.0 0.0 0.00 0.00 0.00 86 1009.2
20260905051125 74 125 0.0 0.0 0.00 0.00 0.00 86 1009.3
20260905050621 74 128 0.0 0.0 0.00 0.00 0.00 86 1009.0
20260905050113 74 125 0.0 0.0 0.00 0.00 0.00 86 1009.3
20260905045612 74 125 0.0 0.0 0.00 0.00 0.00 86 1009.3
20260905045108 74 125 0.0 0.0 0.00 0.00 0.00 85 1009.0
20260905044607 74 125 0.0 0.0 0.00 0.00 0.00 85 1009.3
20260905044102 74 125 0.0 0.0 0.00 0.00 0.00 84 1009.2
20260905043600 74 125 0.0 0.0 0.00 0.00 0.00 84 1009.5
20260905043056 74 126 0.0 0.0 0.00 0.00 0.00 84 1009.4
20260905042554 74 125 0.0 0.0 0.00 0.00 0.00 84 1009.4
20260905042050 75 125 0.0 0.0 0.00 0.00 0.00 83 1009.5
20260905041546 75 125 0.0 0.0 0.00 0.00 0.00 82 1009.4
20260905041041 75 125 0.0 0.0 0.00 0.00 0.00 82 1009.4
20260905040535 75 126 0.0 0.0 0.00 0.00 0.00 82 1009.4
20260905040034 75 130 0.0 0.0 0.00 0.00 0.00 82 1009.4
20260905035529 75 130 0.0 0.0 0.00 0.00 0.00 82 1009.3
20260905035026 75 126 0.0 0.0 0.00 0.00 0.00 81 1009.3
20260905034521 76 125 0.0 0.0 0.00 0.00 0.00 80 1009.4
20260905034021 76 126 0.0 0.0 0.00 0.00 0.00 80 1009.4
20260905033515 76 126 0.0 0.0 0.00 0.00 0.00 79 1009.3
20260905033011 76 126 0.0 0.0 0.00 0.00 0.00 79 1009.3
20260905032506 76 126 0.0 0.0 0.00 0.00 0.00 78 1009.2
20260905032000 77 126 0.0 0.0 0.00 0.00 0.00 78 1009.1
20260905031456 77 126 0.0 0.0 0.00 0.00 0.00 78 1009.2
20260905030951 77 126 0.0 0.0 0.00 0.00 0.00 77 1009.3
20260905030447 77 128 0.0 0.0 0.00 0.00 0.00 77 1009.3
20260905025945 77 132 0.0 0.0 0.00 0.00 0.00 77 1009.3
20260905025441 77 126 0.0 0.0 0.00 0.00 0.00 76 1009.2
20260905024937 77 126 0.0 0.0 0.00 0.00 0.00 76 1009.0
20260905024437 78 126 0.0 0.0 0.00 0.00 0.00 76 1008.9
20260905023932 78 126 0.0 0.0 0.00 0.00 0.00 76 1008.7
20260905023427 78 126 0.0 0.0 0.00 0.00 0.00 76 1008.8
20260905022926 78 126 0.0 0.0 0.00 0.00 0.00 75 1008.6
20260905022422 78 126 0.0 0.0 0.00 0.00 0.00 74 1008.7
20260905021917 78 126 0.0 0.0 0.00 0.00 0.00 73 1008.5
20260905021412 79 128 0.0 0.0 0.00 0.00 0.00 73 1008.7
20260905020907 79 131 0.0 0.0 0.00 0.00 0.00 73 1008.2
20260905020406 79 125 0.0 0.0 0.00 0.00 0.00 72 1008.2
20260905015906 79 126 0.0 0.0 0.00 0.00 0.00 72 1008.2
20260905015404 80 126 0.0 0.0 0.00 0.00 0.00 71 1008.4
20260905014859 80 126 0.0 0.0 0.00 0.00 0.00 70 1008.0
20260905014354 80 128 0.0 0.0 0.00 0.00 0.00 69 1008.0
20260905013849 80 128 0.0 0.0 0.00 0.00 0.00 69 1007.9
20260905013346 81 128 0.0 0.0 0.00 0.00 0.00 68 1007.9
20260905012845 81 128 0.0 0.0 0.00 0.00 0.00 68 1007.9
20260905012341 81 128 0.0 0.0 0.00 0.00 0.00 67 1007.6
20260905011838 82 128 0.0 0.0 0.00 0.00 0.00 67 1007.6
20260905011333 82 128 0.0 0.0 0.00 0.00 0.00 66 1007.7
20260905010829 82 128 0.0 0.0 0.00 0.00 0.00 65 1007.7
20260905010323 83 129 0.0 0.0 0.00 0.00 0.00 65 1007.6
20260905005820 83 128 0.0 0.0 0.00 0.00 0.00 64 1007.6
20260905005316 84 129 0.0 0.0 0.00 0.00 0.00 64 1007.3
20260905004816 84 129 0.0 0.0 0.00 0.00 0.00 63 1007.5
20260905004310 85 132 0.0 1.0 0.00 0.00 0.00 62 1007.4
20260905003806 86 130 0.0 0.0 0.00 0.00 0.00 61 1007.3
20260905003302 86 132 0.0 0.0 0.00 0.00 0.00 60 1007.3
20260905002757 87 132 0.0 0.0 0.00 0.00 0.00 59 1007.5
20260905002257 87 134 0.0 1.0 0.00 0.00 0.00 58 1007.4
20260905001752 88 134 0.0 0.0 0.00 0.00 0.00 57 1007.5
20260905001251 89 135 0.0 1.0 0.00 0.00 0.00 56 1007.7
20260905000746 90 132 0.0 0.0 0.00 0.00 0.00 54 1007.6
20260905000243 92 132 0.0 0.0 0.00 0.00 0.00 52 1007.4
20260904235738 93 138 1.0 1.0 0.00 0.00 0.00 49 1007.4
20260904235232 94 131 0.0 0.0 0.00 0.00 0.00 47 1007.5
20260904234726 96 113 1.0 1.0 0.00 0.00 0.00 45 1007.6
20260904234222 97 116 1.0 1.0 0.00 0.00 0.00 43 1007.5
20260904233718 98 124 0.0 0.0 0.00 0.00 0.00 41 1007.3
20260904233214 99 59 1.0 1.0 0.00 0.00 0.00 41 1007.4
20260904232710 100 113 1.0 1.0 0.00 0.00 0.00 40 1007.4
20260904232206 101 165 1.0 1.0 0.00 0.00 0.00 38 1007.6
20260904231701 101 128 0.0 0.0 0.00 0.00 0.00 38 1007.3
20260904231157 100 133 0.0 1.0 0.00 0.00 0.00 39 1007.6
20260904230656 100 158 3.0 3.0 0.00 0.00 0.00 40 1007.6
20260904230151 100 83 1.0 1.0 0.00 0.00 0.00 39 1007.6
20260904225649 99 129 1.0 1.0 0.00 0.00 0.00 41 1007.5
20260904225144 100 113 1.0 2.0 0.00 0.00 0.00 40 1007.9
20260904224638 100 103 1.0 1.0 0.00 0.00 0.00 40 1007.6
20260904224133 100 133 0.0 0.0 0.00 0.00 0.00 40 1007.6
20260904223632 100 61 2.0 2.0 0.00 0.00 0.00 41 1007.6
20260904223128 99 124 1.0 2.0 0.00 0.00 0.00 42 1007.7
20260904222624 98 88 2.0 2.0 0.00 0.00 0.00 42 1007.7
20260904222120 98 125 1.0 1.0 0.00 0.00 0.00 42 1007.8
20260904221619 99 100 3.0 3.0 0.00 0.00 0.00 42 1007.7
20260904221119 100 92 2.0 2.0 0.00 0.00 0.00 41 1007.8
20260904220614 100 117 0.0 1.0 0.00 0.00 0.00 40 1007.7
20260904220109 100 36 5.0 7.0 0.00 0.00 0.00 40 1007.6
20260904215603 101 125 1.0 1.0 0.00 0.00 0.00 40 1007.7
20260904215059 100 190 0.0 2.0 0.00 0.00 0.00 41 1007.8
20260904214554 100 143 1.0 1.0 0.00 0.00 0.00 40 1007.8
20260904214050 100 128 1.0 1.0 0.00 0.00 0.00 41 1007.6
20260904213548 99 60 2.0 2.0 0.00 0.00 0.00 42 1007.9
20260904213045 100 118 1.0 1.0 0.00 0.00 0.00 41 1007.9
20260904212544 102 65 1.0 2.0 0.00 0.00 0.00 40 1007.9
20260904212039 103 127 1.0 2.0 0.00 0.00 0.00 37 1008.1
20260904211534 104 184 2.0 3.0 0.00 0.00 0.00 37 1008.1
20260904211029 101 138 0.0 1.0 0.00 0.00 0.00 39 1008.1
20260904210529 101 80 1.0 2.0 0.00 0.00 0.00 40 1008.1
20260904210025 100 114 3.0 6.0 0.00 0.00 0.00 40 1008.2
20260904205520 101 80 1.0 1.0 0.00 0.00 0.00 39 1008.0
20260904205017 102 161 2.0 3.0 0.00 0.00 0.00 38 1008.4
20260904204512 102 107 1.0 1.0 0.00 0.00 0.00 37 1008.2
20260904204009 103 243 2.0 2.0 0.00 0.00 0.00 37 1008.2
20260904203504 104 229 3.0 3.0 0.00 0.00 0.00 38 1008.2
20260904203000 101 102 2.0 2.0 0.00 0.00 0.00 38 1008.4
20260904202456 101 64 3.0 3.0 0.00 0.00 0.00 39 1008.4
20260904201951 102 92 1.0 1.0 0.00 0.00 0.00 39 1008.6
20260904201446 103 116 1.0 1.0 0.00 0.00 0.00 39 1008.6
20260904200942 102 66 2.0 3.0 0.00 0.00 0.00 39 1008.7
20260904200440 102 171 2.0 2.0 0.00 0.00 0.00 39 1008.8
20260904195935 100 102 1.0 2.0 0.00 0.00 0.00 41 1009.0
20260904195433 101 153 1.0 1.0 0.00 0.00 0.00 41 1008.9
20260904194927 102 118 0.0 0.0 0.00 0.00 0.00 41 1009.0
20260904194427 101 138 0.0 0.0 0.00 0.00 0.00 41 1009.3
20260904193922 101 125 1.0 1.0 0.00 0.00 0.00 40 1009.2
20260904193418 101 160 2.0 2.0 0.00 0.00 0.00 41 1009.1
20260904192913 100 76 2.0 3.0 0.00 0.00 0.00 41 1009.4
20260904192408 98 167 1.0 1.0 0.00 0.00 0.00 43 1009.3
20260904191904 98 133 0.0 1.0 0.00 0.00 0.00 44 1009.4
20260904191401 100 120 2.0 2.0 0.00 0.00 0.00 42 1009.3
20260904190857 100 315 4.0 5.0 0.00 0.00 0.00 42 1009.5
20260904190352 99 140 1.0 1.0 0.00 0.00 0.00 43 1009.6
20260904185849 99 144 1.0 2.0 0.00 0.00 0.00 43 1009.8
20260904185344 98 104 1.0 1.0 0.00 0.00 0.00 44 1009.8
20260904184843 98 141 1.0 1.0 0.00 0.00 0.00 44 1009.9
20260904184339 100 149 1.0 1.0 0.00 0.00 0.00 43 1009.6
20260904183834 99 182 1.0 2.0 0.00 0.00 0.00 42 1009.9
20260904183329 98 219 2.0 3.0 0.00 0.00 0.00 43 1009.9
20260904182825 98 125 3.0 3.0 0.00 0.00 0.00 43 1009.9
20260904182324 98 131 2.0 3.0 0.00 0.00 0.00 44 1009.9
20260904181820 97 175 1.0 2.0 0.00 0.00 0.00 46 1009.9
20260904181321 96 52 2.0 2.0 0.00 0.00 0.00 47 1010.3
20260904180816 96 133 0.0 0.0 0.00 0.00 0.00 47 1010.2
20260904180311 96 88 0.0 1.0 0.00 0.00 0.00 46 1010.1
20260904175810 96 112 1.0 1.0 0.00 0.00 0.00 46 1010.3
20260904175309 95 168 2.0 2.0 0.00 0.00 0.00 47 1010.3
20260904174808 95 135 1.0 2.0 0.00 0.00 0.00 47 1010.4
20260904174305 96 91 2.0 2.0 0.00 0.00 0.00 46 1010.5
20260904173800 96 311 4.0 5.0 0.00 0.00 0.00 48 1010.5
20260904173255 96 131 1.0 2.0 0.00 0.00 0.00 47 1010.8
20260904172752 96 125 1.0 2.0 0.00 0.00 0.00 47 1010.6
20260904172250 96 105 3.0 5.0 0.00 0.00 0.00 48 1010.3
20260904171745 96 124 1.0 1.0 0.00 0.00 0.00 49 1010.7
20260904171241 95 102 2.0 2.0 0.00 0.00 0.00 49 1010.7
20260904170737 94 138 1.0 2.0 0.00 0.00 0.00 49 1010.8
20260904170233 94 121 4.0 5.0 0.00 0.00 0.00 51 1010.9
20260904165732 95 185 4.0 5.0 0.00 0.00 0.00 51 1010.8
20260904165226 94 331 2.0 2.0 0.00 0.00 0.00 51 1010.7
20260904164720 93 78 2.0 2.0 0.00 0.00 0.00 53 1010.9
20260904164215 93 154 1.0 2.0 0.00 0.00 0.00 52 1011.1
20260904163712 94 150 2.0 2.0 0.00 0.00 0.00 51 1011.0
20260904163207 93 113 3.0 6.0 0.00 0.00 0.00 52 1011.0
20260904162706 94 130 0.0 0.0 0.00 0.00 0.00 52 1010.9
20260904162200 93 131 1.0 1.0 0.00 0.00 0.00 53 1010.9
20260904161656 92 131 1.0 1.0 0.00 0.00 0.00 55 1010.9
20260904161151 92 158 0.0 1.0 0.00 0.00 0.00 55 1011.0
20260904160647 92 165 1.0 1.0 0.00 0.00 0.00 55 1010.9
20260904160142 92 123 0.0 1.0 0.00 0.00 0.00 56 1010.8
20260904155637 92 193 4.0 5.0 0.00 0.00 0.00 56 1010.8
20260904155131 92 194 2.0 5.0 0.00 0.00 0.00 56 1010.8
20260904154630 91 170 2.0 2.0 0.00 0.00 0.00 57 1010.9
20260904154125 90 142 1.0 1.0 0.00 0.00 0.00 59 1011.1
20260904153620 90 150 2.0 3.0 0.00 0.00 0.00 59 1011.1
20260904153115 90 97 2.0 2.0 0.00 0.00 0.00 61 1011.1
20260904152612 89 134 0.0 0.0 0.00 0.00 0.00 63 1011.1
20260904152107 89 173 3.0 3.0 0.00 0.00 0.00 63 1011.3
20260904151602 89 160 3.0 3.0 0.00 0.00 0.00 64 1011.0
20260904151101 89 154 2.0 2.0 0.00 0.00 0.00 66 1011.2
20260904150556 88 154 3.0 3.0 0.00 0.00 0.00 68 1011.1
20260904150055 87 104 0.0 1.0 0.00 0.00 0.00 69 1010.7
20260904145555 86 134 1.0 1.0 0.00 0.00 0.00 70 1011.1
20260904145050 85 146 2.0 2.0 0.00 0.00 0.00 71 1011.1
20260904144546 85 114 1.0 1.0 0.00 0.00 0.00 72 1010.9
20260904144042 84 144 1.0 1.0 0.00 0.00 0.00 73 1011.2
20260904143537 84 128 2.0 2.0 0.00 0.00 0.00 74 1011.1
20260904143034 83 134 1.0 1.0 0.00 0.00 0.00 75 1011.1
20260904142530 83 136 1.0 1.0 0.00 0.00 0.00 76 1010.9
20260904142025 82 130 0.0 0.0 0.00 0.00 0.00 77 1011.0
20260904141520 82 134 2.0 2.0 0.00 0.00 0.00 77 1011.0
20260904141016 82 134 1.0 2.0 0.00 0.00 0.00 77 1011.3
20260904140511 82 127 0.0 0.0 0.00 0.00 0.00 78 1011.2
20260904140010 81 127 1.0 1.0 0.00 0.00 0.00 78 1011.1
20260904135504 81 120 0.0 0.0 0.00 0.00 0.00 79 1011.2
20260904135001 80 119 0.0 0.0 0.00 0.00 0.00 79 1011.1
20260904134501 80 116 1.0 1.0 0.00 0.00 0.00 79 1011.2
20260904133954 81 117 0.0 1.0 0.00 0.00 0.00 78 1011.3
20260904133449 80 121 0.0 0.0 0.00 0.00 0.00 79 1011.1
20260904132945 80 117 0.0 1.0 0.00 0.00 0.00 79 1011.3
20260904132440 80 116 0.0 1.0 0.00 0.00 0.00 80 1011.2
20260904131939 79 121 0.0 0.0 0.00 0.00 0.00 83 1011.0
20260904131435 78 121 0.0 0.0 0.00 0.00 0.00 84 1010.9
20260904130931 77 117 1.0 1.0 0.00 0.00 0.00 84 1010.9
20260904130429 76 122 0.0 0.0 0.00 0.00 0.00 88 1010.8
20260904125924 75 118 1.0 1.0 0.00 0.00 0.00 90 1010.8
20260904125421 73 118 0.0 0.0 0.00 0.00 0.00 95 1010.8
20260904124921 72 119 0.0 0.0 0.00 0.00 0.00 99 1010.7
20260904124417 71 122 0.0 0.0 0.00 0.00 0.00 99 1010.8
20260904123913 69 123 0.0 0.0 0.00 0.00 0.00 99 1010.8
20260904123412 69 123 0.0 0.0 0.00 0.00 0.00 99 1010.7
20260904122908 69 122 0.0 0.0 0.00 0.00 0.00 99 1010.7
20260904122407 68 124 0.0 0.0 0.00 0.00 0.00 99 1010.7
20260904121902 68 124 0.0 0.0 0.00 0.00 0.00 99 1010.7
20260904121358 68 123 0.0 0.0 0.00 0.00 0.00 99 1010.6
20260904120854 68 122 0.0 0.0 0.00 0.00 0.00 99 1010.7
20260904120351 68 123 0.0 0.0 0.00 0.00 0.00 99 1010.6
20260904115845 68 124 0.0 0.0 0.00 0.00 0.00 99 1010.6
20260904115340 68 123 0.0 0.0 0.00 0.00 0.00 99 1010.4
20260904114835 68 125 0.0 0.0 0.00 0.00 0.00 99 1010.6
20260904114329 68 123 0.0 0.0 0.00 0.00 0.00 99 1010.3
20260904113825 68 123 0.0 0.0 0.00 0.00 0.00 99 1010.4
20260904113324 68 123 0.0 0.0 0.00 0.00 0.00 99 1010.4
20260904112819 68 123 0.0 0.0 0.00 0.00 0.00 99 1010.3
20260904112314 68 123 0.0 0.0 0.00 0.00 0.00 99 1010.2
20260904111810 68 125 0.0 0.0 0.00 0.00 0.00 99 1010.2
20260904111306 68 125 0.0 0.0 0.00 0.00 0.00 99 1009.9
20260904110801 68 125 0.0 0.0 0.00 0.00 0.00 99 1010.0
20260904110259 68 125 0.0 0.0 0.00 0.00 0.00 99 1010.1
20260904105755 68 124 0.0 0.0 0.00 0.00 0.00 99 1010.2
20260904105250 68 124 0.0 0.0 0.00 0.00 0.00 99 1010.1
20260904104745 68 123 0.0 0.0 0.00 0.00 0.00 99 1010.1
20260904104240 68 123 0.0 0.0 0.00 0.00 0.00 99 1010.0
20260904103737 69 123 0.0 0.0 0.00 0.00 0.00 99 1010.1
20260904103232 69 123 0.0 0.0 0.00 0.00 0.00 99 1010.1
20260904102727 69 125 0.0 0.0 0.00 0.00 0.00 99 1009.9
20260904102223 69 125 0.0 0.0 0.00 0.00 0.00 99 1009.9
20260904101719 69 125 0.0 0.0 0.00 0.00 0.00 99 1009.9
20260904101215 69 125 0.0 0.0 0.00 0.00 0.00 99 1010.0
20260904100710 69 125 0.0 0.0 0.00 0.00 0.00 99 1010.0
20260904100206 69 125 0.0 0.0 0.00 0.00 0.00 99 1010.1
20260904095706 69 125 0.0 0.0 0.00 0.00 0.00 99 1009.9
20260904095200 69 125 0.0 0.0 0.00 0.00 0.00 99 1009.9
20260904094655 69 125 0.0 0.0 0.00 0.00 0.00 99 1009.7
20260904094150 69 125 0.0 0.0 0.00 0.00 0.00 98 1010.0
20260904093648 69 123 0.0 0.0 0.00 0.00 0.00 98 1010.0
20260904093147 69 123 0.0 0.0 0.00 0.00 0.00 98 1009.7
20260904092643 69 123 0.0 0.0 0.00 0.00 0.00 98 1009.5
20260904092139 69 123 0.0 0.0 0.00 0.00 0.00 98 1009.7
20260904091635 69 125 0.0 0.0 0.00 0.00 0.00 98 1009.8
20260904091134 69 123 0.0 0.0 0.00 0.00 0.00 98 1009.7
20260904090630 70 123 0.0 0.0 0.00 0.00 0.00 98 1009.5
20260904090126 70 123 0.0 0.0 0.00 0.00 0.00 98 1009.4
20260904085620 70 124 0.0 0.0 0.00 0.00 0.00 98 1009.6
20260904085120 70 125 0.0 0.0 0.00 0.00 0.00 98 1009.2
20260904084615 70 125 0.0 0.0 0.00 0.00 0.00 98 1009.3
20260904084112 70 125 0.0 0.0 0.00 0.00 0.00 97 1009.3
20260904083608 70 125 0.0 0.0 0.00 0.00 0.00 98 1009.3
20260904083103 70 125 0.0 0.0 0.00 0.00 0.00 98 1009.2
20260904082558 70 126 0.0 0.0 0.00 0.00 0.00 98 1009.2
20260904082048 70 125 0.0 0.0 0.00 0.00 0.00 97 1009.1
20260904081543 70 125 0.0 0.0 0.00 0.00 0.00 97 1009.1
20260904081039 70 125 0.0 0.0 0.00 0.00 0.00 97 1009.0
20260904080534 70 125 0.0 0.0 0.00 0.00 0.00 97 1009.1
20260904080030 70 125 0.0 0.0 0.00 0.00 0.00 96 1009.2
20260904075526 70 125 0.0 0.0 0.00 0.00 0.00 96 1009.3
20260904075021 70 125 0.0 0.0 0.00 0.00 0.00 96 1009.1
20260904074520 70 125 0.0 0.0 0.00 0.00 0.00 96 1009.1
20260904074020 70 125 0.0 0.0 0.00 0.00 0.00 96 1009.0
20260904073515 70 125 0.0 0.0 0.00 0.00 0.00 96 1009.3
20260904073012 70 125 0.0 0.0 0.00 0.00 0.00 96 1008.9
20260904072508 70 125 0.0 0.0 0.00 0.00 0.00 95 1009.0
20260904072007 70 125 0.0 0.0 0.00 0.00 0.00 95 1009.0
20260904071502 70 125 0.0 0.0 0.00 0.00 0.00 95 1009.1
20260904070957 70 125 0.0 0.0 0.00 0.00 0.00 95 1009.0
20260904070456 70 126 0.0 0.0 0.00 0.00 0.00 95 1009.0
20260904065951 70 125 0.0 0.0 0.00 0.00 0.00 94 1009.2
20260904065447 71 125 0.0 0.0 0.00 0.00 0.00 94 1009.1
20260904064942 71 125 0.0 0.0 0.00 0.00 0.00 94 1009.2
20260904064438 71 125 0.0 0.0 0.00 0.00 0.00 94 1009.2
20260904063933 71 125 0.0 0.0 0.00 0.00 0.00 94 1009.3
20260904063430 71 125 0.0 0.0 0.00 0.00 0.00 94 1009.3
20260904062924 71 126 0.0 0.0 0.00 0.00 0.00 93 1009.5